Wind_Speed
39 34 42 40 44 45 51 45 44 45 46 52 59 64 64 65 68 67 73 60 57 59 54 53 51 50 47 50 51 56 60 61 64 68 69 71 76 80 82 84 90 91 96 98 98 99 96 93 88
40 40 42 44 51 49 57 53 46 44 50 56 62 66 71 72 70 71 73 60 56 57 53 55 55 49 42 46 51 55 60 63 64 69 71 73 75 80 82 81 85 91 91 93 99 102 103 100 95
43 44 50 52 53 58 61 59 49 48 55 60 66 70 75 74 72 73 73 58 58 51 55 55 54 47 47 51 57 61 62 63 64 66 69 72 74 74 74 70 73 82 87 86 90 99 105 106 101
50 46 50 52 55 58 64 62 59 58 60 66 72 78 78 77 70 78 76 60 52 51 55 55 54 52 52 58 63 64 64 62 60 64 68 71 71 70 71 67 67 73 79 83 85 92 101 109 106
53 56 58 56 57 59 63 66 64 65 65 72 75 79 72 75 73 77 71 57 51 53 57 52 57 57 58 64 66 67 68 69 68 67 68 70 69 68 69 66 65 67 72 75 81 86 94 104 108
57 58 61 59 53 56 65 69 72 67 74 73 75 77 81 76 79 77 62 53 55 56 55 56 60 62 62 64 67 68 71 70 68 68 68 64 64 64 65 65 66 66 69 71 75 84 89 94 105
59 56 64 60 57 63 70 71 69 72 74 71 78 78 80 80 82 73 58 56 59 57 58 60 62 63 66 68 68 68 71 67 68 66 64 61 60 60 62 65 66 67 68 70 71 80 86 88 96
59 59 62 62 65 68 75 71 70 74 69 76 83 80 77 83 87 72 61 58 57 61 61 58 61 62 68 67 69 76 69 71 62 61 59 57 58 56 59 61 65 66 69 71 73 76 83 87 91
62 63 67 67 68 71 73 73 72 65 73 83 80 84 83 87 80 63 56 55 58 63 59 61 58 60 66 70 77 74 73 62 58 53 51 46 52 52 53 54 58 64 67 71 73 76 80 85 87
65 63 65 71 70 71 73 67 65 71 79 83 83 79 85 83 69 57 56 56 60 61 58 61 61 67 71 74 78 72 65 58 50 47 43 38 41 45 48 48 50 54 63 69 74 76 78 83 85
62 65 66 67 69 70 65 67 74 78 84 85 77 84 84 75 62 58 57 59 61 59 62 63 67 71 74 80 71 67 58 51 45 44 43 37 36 35 37 40 42 46 52 64 71 74 78 80 84
64 68 69 69 69 68 71 78 78 80 84 80 80 83 76 67 60 63 62 60 61 63 66 69 72 74 78 73 68 56 51 43 44 40 38 34 32 31 31 33 35 39 45 52 65 69 74 79 80
63 69 61 57 66 77 72 75 77 81 84 79 83 72 61 61 46 43 61 62 64 65 69 74 76 77 69 63 56 49 40 39 36 36 34 30 27 28 29 27 30 33 39 45 53 60 68 74 80
67 63 69 72 66 74 77 73 75 78 75 82 79 66 64 44 46 63 64 60 65 69 73 77 72 66 61 58 46 39 34 31 33 33 30 26 23 22 24 23 24 29 35 40 45 50 61 68 76
64 70 67 71 74 74 72 73 78 81 79 81 76 61 62 64 66 67 63 64 68 72 72 69 66 59 51 41 38 30 29 26 30 28 24 21 19 17 18 19 22 26 30 35 40 45 53 59 68
69 65 71 73 70 67 73 77 80 81 79 74 58 56 60 62 62 61 63 66 68 67 63 63 56 47 38 36 29 25 24 24 28 28 23 15 16 14 13 15 18 22 27 32 36 40 47 56 61
64 61 62 70 74 73 70 73 75 76 63 49 47 49 54 53 50 54 57 59 57 59 59 52 43 33 34 28 21 24 20 21 27 28 22 14 11 9 9 10 15 20 23 27 34 34 38 47 55
64 63 66 67 73 70 74 71 68 51 46 44 44 42 43 44 46 46 47 50 55 55 50 40 30 31 30 22 17 23 17 19 26 28 25 22 12 7 4 6 11 17 20 24 31 37 40 42 53
63 62 63 64 67 70 72 61 55 51 48 46 44 43 41 43 46 49 48 52 51 48 39 30 26 29 23 16 17 20 19 14 21 26 27 26 19 7 3 1 7 14 20 24 29 34 36 37 45
59 59 61 63 63 64 52 51 47 45 46 45 41 37 40 44 44 43 46 46 44 36 29 23 26 24 18 11 16 18 19 14 14 19 25 25 22 11 6 1 6 11 18 24 30 35 38 40 43
57 56 58 57 55 46 43 40 33 35 38 39 40 38 38 39 40 39 39 39 37 29 22 22 22 19 15 10 15 15 17 16 13 15 21 24 25 20 8 3 5 10 16 22 30 34 38 41 41
57 58 55 49 40 33 31 29 27 29 31 30 33 33 33 35 35 36 37 34 30 21 20 22 18 15 12 8 14 12 10 12 14 12 15 14 19 23 18 5 6 9 15 20 26 33 37 39 38
60 50 40 31 27 27 26 25 28 31 32 28 27 26 31 32 31 34 32 28 22 17 20 22 15 12 8 5 11 14 5 7 8 13 16 13 13 17 21 13 5 10 14 18 27 32 37 37 41
42 32 27 24 24 24 26 22 30 31 32 24 25 28 27 29 31 32 27 25 18 17 18 18 11 9 1 5 10 11 11 12 17 18 13 7 10 15 20 18 8 13 15 18 26 32 34 34 38
33 27 22 21 21 25 27 30 28 31 31 28 27 26 25 25 28 27 23 19 16 18 17 14 9 5 5 6 8 11 15 14 23 22 22 17 13 8 12 14 11 16 16 20 24 27 28 34 38
29 26 22 20 22 28 24 31 28 32 32 34 32 30 24 21 24 22 20 17 15 17 17 11 6 4 7 9 9 5 14 22 22 24 27 25 18 11 9 10 14 18 21 22 25 26 29 38 43
27 20 22 22 23 28 29 31 32 34 34 36 33 27 23 21 24 18 16 14 15 15 14 8 6 4 6 12 11 6 16 18 18 21 27 25 20 13 10 12 18 22 28 24 28 32 36 37 39
22 25 23 24 25 28 29 32 35 36 35 36 33 25 21 20 17 13 11 12 14 14 12 8 6 3 7 14 11 9 10 20 21 17 21 30 24 13 13 12 18 28 30 37 37 40 37 38 43
27 25 27 25 29 30 32 35 31 35 34 36 35 25 23 19 13 10 8 11 15 13 12 6 8 4 5 17 12 16 14 16 16 16 19 25 29 18 13 11 17 31 32 29 31 38 35 40 52
29 25 30 30 33 32 34 32 30 32 35 35 35 26 20 13 9 11 9 12 14 10 10 5 6 6 1 18 13 15 15 11 11 20 19 20 25 26 20 20 20 31 30 31 34 37 41 43 53
Wind_Direction
288 287 296 297 297 291 295 296 295 305 308 310 317 317 318 316 310 316 319 306 295 299 294 288 288 285 273 271 274 274 273 268 264 262 260 261 262 260 256 254 253 248 242 235 231 223 221 220 220
287 292 290 296 298 293 294 293 298 299 305 310 313 315 316 315 312 315 316 304 295 296 295 289 291 285 277 275 277 282 285 276 271 268 267 266 263 264 258 253 252 251 245 240 236 228 224 219 219
285 293 295 298 297 297 289 292 293 297 303 307 312 312 314 315 315 315 318 304 297 295 289 291 291 282 281 280 281 281 290 280 274 274 269 269 268 266 263 254 248 245 245 243 237 233 230 222 219
283 289 295 295 297 300 289 289 289 293 300 307 312 311 315 315 316 318 317 304 295 288 295 292 289 286 284 286 287 285 290 291 284 281 276 272 269 267 265 259 251 245 241 239 237 233 227 228 220
280 286 289 291 296 297 298 297 292 293 301 306 310 310 314 315 315 317 312 301 293 294 298 292 294 291 290 291 294 295 295 294 290 281 275 271 267 265 262 259 251 244 240 234 234 231 228 223 224
281 282 283 284 292 296 301 297 295 297 300 302 308 309 311 312 315 316 308 294 295 293 297 296 293 293 294 295 299 300 300 299 293 285 278 273 268 263 258 255 251 244 241 236 230 228 227 224 222
279 282 283 284 287 296 300 295 293 293 297 301 306 306 308 314 314 315 301 293 294 294 298 297 295 294 295 298 301 305 308 302 294 290 285 279 272 265 258 252 248 243 239 237 232 227 226 224 223
273 281 279 284 289 294 297 295 292 291 296 300 303 303 307 309 314 313 295 293 295 298 299 297 295 295 296 301 308 311 309 306 298 294 289 283 275 267 259 252 247 241 237 234 232 227 224 223 220
272 281 285 285 291 296 296 293 287 297 301 301 299 304 308 313 314 306 293 292 293 298 301 303 302 304 307 314 312 311 310 304 301 295 291 283 274 270 264 255 245 241 236 232 229 227 222 221 219
275 280 280 285 291 291 289 282 293 297 298 300 303 306 310 310 310 301 295 290 295 302 305 306 307 308 309 310 312 312 308 307 304 304 304 289 275 267 265 258 250 241 235 231 227 224 222 219 217
276 281 283 287 291 285 277 288 297 296 298 299 304 310 310 307 303 297 296 292 299 305 306 311 310 309 309 310 311 311 309 308 311 309 305 296 281 269 257 251 247 243 233 230 227 221 220 219 216
282 279 282 281 278 274 286 292 295 296 297 300 310 310 304 304 301 299 300 301 305 306 306 309 309 307 307 310 311 310 309 314 315 312 307 297 282 273 260 251 242 237 231 228 227 222 219 217 216
280 277 273 272 283 285 286 289 293 293 294 307 311 308 300 305 305 299 303 303 304 305 305 308 306 305 309 309 312 311 313 319 323 317 310 299 286 277 267 254 242 233 226 224 223 220 218 215 214
270 267 274 275 279 287 290 290 291 297 305 308 306 298 295 295 284 293 301 302 302 303 306 305 308 308 310 311 313 311 316 326 332 325 316 302 292 284 270 260 240 227 221 217 219 215 215 214 212
266 273 273 282 283 284 286 294 296 303 305 303 300 297 296 298 290 294 299 299 299 302 305 308 309 309 311 311 314 313 319 333 340 333 324 308 299 290 274 259 237 224 217 211 213 210 210 210 209
269 272 282 280 279 288 295 299 300 297 298 297 292 292 288 294 293 293 293 292 297 304 307 308 309 311 308 319 316 318 324 340 354 348 344 325 310 301 278 253 236 223 214 208 207 206 207 206 205
268 276 283 289 293 297 299 298 301 299 296 294 297 301 303 300 301 294 295 299 302 305 306 310 309 310 317 322 323 331 325 347 1 1 356 346 329 323 293 250 230 218 206 205 201 198 201 202 201
281 286 285 291 291 292 300 299 299 291 294 294 298 306 305 304 304 304 302 304 305 304 307 308 312 319 319 331 340 340 329 349 10 3 11 7 357 351 340 247 221 212 203 197 197 191 194 196 197
284 289 294 297 298 297 296 292 286 289 293 294 294 301 309 309 306 303 304 303 302 307 308 308 323 321 323 343 360 356 350 9 10 9 18 15 12 1 10 185 214 204 199 193 190 192 188 185 192
288 290 293 291 291 294 289 285 289 294 294 292 294 299 305 305 304 301 302 302 306 308 305 316 329 318 337 354 359 358 7 19 15 3 21 15 18 21 26 159 171 195 191 187 185 183 182 180 185
283 287 290 288 288 283 286 292 300 304 302 297 290 298 302 304 306 308 303 306 309 303 311 327 327 320 353 8 359 4 358 15 360 11 24 29 27 31 31 89 144 172 185 183 182 181 183 183 181
284 285 283 280 279 281 284 299 306 312 313 300 299 299 302 305 312 306 306 308 310 308 322 331 325 326 348 8 14 14 19 10 13 19 18 34 29 23 26 48 120 154 172 176 179 181 180 181 179
280 276 268 264 271 287 291 308 316 319 321 314 310 303 302 303 312 311 309 312 307 314 330 335 324 344 355 4 32 39 23 26 35 23 8 3 20 17 29 39 124 136 151 169 175 177 177 181 181
263 252 254 271 283 299 312 321 324 325 324 313 311 309 300 301 308 306 310 314 306 325 335 335 321 342 307 109 42 42 39 59 53 34 18 352 360 19 18 33 103 140 145 166 169 174 171 177 174
243 245 259 275 292 299 314 319 334 330 329 313 308 310 310 311 306 303 313 304 314 331 338 331 316 357 181 114 63 63 81 75 65 53 43 34 18 45 29 29 78 128 143 151 156 164 161 166 166
242 248 261 276 288 298 312 318 326 331 332 324 313 318 318 318 306 307 315 306 325 333 337 330 324 16 144 128 87 82 95 92 69 63 53 36 39 79 66 53 104 119 130 135 137 145 154 161 160
237 247 258 270 284 295 308 311 326 331 333 325 317 320 325 316 304 320 308 310 332 337 341 338 337 29 163 134 102 93 110 104 89 76 59 45 39 71 98 107 109 120 124 122 132 140 149 157 162
232 246 256 268 281 292 302 308 323 324 331 329 326 320 337 308 299 309 304 316 339 337 354 352 1 14 171 155 121 138 135 109 93 79 64 60 44 79 107 134 123 123 126 133 142 149 155 157 162
235 241 256 267 277 288 297 304 317 322 329 332 328 322 334 296 296 297 302 319 340 341 4 3 13 354 179 170 127 149 141 136 112 90 69 69 56 73 110 132 132 137 138 141 150 155 146 160 154
234 250 258 266 272 284 290 299 314 322 326 332 327 321 336 282 303 297 310 320 333 348 8 12 17 359 47 175 156 139 163 147 108 108 88 65 65 61 86 114 146 146 142 150 156 160 149 160 158
Height
10927 10925 10923 10920 10919 10916 10914 10912 10907 10906 10903 10898 10896 10892 10888 10883 10876 10873 10865 10859 10853 10850 10848 10843 10841 10836 10833 10831 10829 10826 10821 10818 10816 10812 10808 10806 10802 10799 10799 10799 10800 10807 10818 10826 10836 10846 10853 10862 10875
10922 10920 10916 10913 10912 10910 10904 10905 10901 10897 10894 10892 10887 10882 10878 10871 10866 10861 10855 10847 10846 10841 10835 10834 10827 10824 10821 10818 10814 10810 10806 10802 10799 10795 10792 10789 10784 10777 10778 10782 10782 10784 10794 10805 10817 10826 10835 10844 10857
10916 10913 10911 10908 10905 10903 10896 10896 10892 10889 10885 10881 10878 10873 10868 10863 10855 10850 10842 10838 10834 10830 10826 10820 10818 10813 10809 10805 10801 10797 10791 10785 10781 10776 10771 10766 10761 10757 10755 10761 10763 10763 10770 10781 10792 10803 10816 10826 10840
10909 10907 10903 10901 10900 10896 10891 10888 10884 10880 10877 10873 10868 10864 10859 10850 10847 10840 10833 10825 10821 10818 10815 10812 10807 10802 10797 10793 10788 10781 10774 10770 10765 10757 10748 10743 10738 10736 10733 10737 10741 10743 10749 10759 10768 10777 10789 10806 10823
10902 10899 10896 10895 10892 10889 10885 10881 10876 10871 10868 10865 10861 10853 10851 10840 10837 10830 10822 10816 10811 10808 10804 10802 10795 10791 10786 10779 10772 10764 10757 10750 10742 10735 10727 10721 10717 10715 10712 10716 10720 10724 10728 10737 10746 10754 10767 10782 10802
10895 10892 10887 10885 10883 10883 10880 10874 10869 10864 10859 10856 10851 10844 10841 10835 10826 10819 10812 10807 10802 10798 10793 10787 10785 10778 10773 10765 10757 10749 10739 10728 10718 10710 10703 10698 10695 10694 10694 10696 10699 10705 10710 10718 10728 10737 10749 10764 10780
10887 10884 10880 10876 10875 10873 10870 10866 10862 10857 10851 10846 10845 10834 10830 10823 10815 10809 10802 10797 10792 10787 10781 10775 10770 10767 10758 10750 10742 10734 10721 10709 10698 10688 10680 10676 10675 10675 10676 10677 10681 10686 10692 10700 10710 10721 10732 10748 10763
10877 10876 10874 10870 10868 10864 10859 10858 10853 10848 10843 10837 10832 10826 10818 10814 10803 10798 10791 10784 10781 10776 10771 10764 10759 10751 10745 10738 10728 10714 10705 10693 10681 10671 10660 10656 10653 10655 10655 10659 10664 10668 10674 10682 10693 10704 10716 10731 10745
10868 10869 10866 10862 10860 10855 10849 10847 10841 10840 10833 10829 10822 10815 10806 10798 10793 10787 10782 10777 10773 10768 10761 10753 10747 10741 10731 10721 10712 10701 10689 10678 10667 10656 10647 10641 10636 10637 10637 10640 10646 10651 10658 10666 10676 10687 10701 10716 10731
10860 10860 10856 10853 10850 10846 10841 10837 10831 10829 10823 10817 10810 10803 10796 10787 10782 10777 10772 10768 10763 10756 10750 10744 10736 10727 10718 10708 10698 10687 10674 10664 10653 10643 10634 10628 10623 10622 10624 10626 10629 10636 10644 10650 10659 10672 10685 10700 10716
10855 10847 10846 10841 10841 10836 10831 10825 10822 10817 10811 10806 10800 10791 10782 10776 10772 10767 10762 10756 10752 10746 10740 10733 10725 10714 10705 10697 10686 10676 10664 10653 10643 10633 10624 10618 10613 10611 10613 10615 10619 10623 10630 10637 10644 10659 10671 10687 10704
10845 10836 10834 10831 10830 10827 10820 10816 10811 10805 10800 10793 10787 10778 10769 10767 10762 10756 10752 10746 10739 10733 10727 10721 10713 10704 10694 10685 10675 10665 10655 10644 10634 10624 10616 10610 10605 10603 10603 10606 10610 10614 10619 10626 10632 10647 10660 10674 10691
10830 10825 10823 10821 10817 10817 10810 10804 10800 10793 10792 10785 10776 10767 10760 10756 10752 10746 10742 10735 10730 10724 10717 10710 10702 10692 10683 10673 10665 10656 10645 10636 10626 10617 10610 10603 10599 10597 10596 10598 10602 10606 10611 10616 10623 10635 10646 10661 10679
10817 10812 10813 10813 10809 10805 10799 10790 10791 10780 10780 10771 10764 10759 10754 10750 10744 10738 10732 10727 10721 10713 10706 10699 10690 10679 10672 10663 10657 10648 10639 10630 10621 10612 10604 10598 10594 10591 10590 10590 10594 10598 10602 10609 10616 10625 10637 10651 10668
10803 10804 10803 10798 10797 10794 10789 10779 10776 10769 10772 10760 10753 10748 10744 10740 10735 10729 10723 10718 10711 10704 10696 10689 10679 10671 10664 10657 10650 10641 10633 10626 10618 10609 10601 10595 10591 10588 10586 10585 10588 10591 10597 10603 10610 10619 10630 10644 10658
10790 10793 10792 10787 10787 10781 10775 10768 10762 10761 10756 10750 10745 10739 10735 10730 10724 10719 10715 10709 10701 10694 10688 10680 10671 10664 10657 10652 10643 10635 10628 10623 10615 10605 10599 10593 10589 10586 10583 10583 10583 10587 10592 10598 10605 10614 10624 10636 10650
10781 10784 10779 10773 10769 10770 10766 10759 10752 10747 10743 10742 10737 10730 10726 10721 10714 10708 10703 10699 10692 10685 10678 10672 10664 10658 10651 10646 10637 10631 10625 10621 10614 10606 10599 10593 10588 10584 10582 10581 10582 10585 10589 10595 10603 10612 10622 10632 10644
10774 10771 10768 10764 10758 10762 10752 10750 10744 10737 10735 10733 10728 10723 10719 10712 10706 10700 10695 10690 10684 10677 10670 10665 10660 10652 10647 10640 10635 10629 10625 10620 10615 10607 10600 10595 10589 10584 10582 10581 10582 10584 10588 10594 10600 10608 10615 10626 10637
10762 10759 10757 10753 10752 10744 10742 10739 10733 10731 10726 10723 10719 10715 10712 10705 10698 10692 10688 10683 10675 10670 10664 10660 10654 10647 10643 10637 10633 10629 10625 10619 10616 10608 10602 10597 10591 10586 10583 10583 10583 10584 10587 10593 10599 10606 10614 10626 10637
10752 10751 10748 10748 10743 10738 10734 10730 10729 10724 10719 10715 10712 10708 10703 10697 10691 10686 10681 10675 10669 10664 10659 10656 10650 10644 10639 10636 10633 10629 10626 10621 10616 10611 10606 10600 10594 10588 10585 10584 10585 10587 10589 10593 10599 10605 10613 10623 10632
10740 10742 10740 10738 10734 10731 10728 10725 10723 10717 10711 10706 10703 10700 10695 10689 10684 10680 10674 10669 10664 10660 10656 10652 10646 10641 10637 10636 10633 10629 10627 10622 10617 10613 10608 10605 10598 10592 10588 10587 10586 10588 10591 10595 10599 10605 10613 10622 10631
10733 10731 10733 10731 10727 10725 10723 10718 10716 10711 10705 10700 10696 10692 10687 10683 10679 10674 10669 10664 10660 10657 10653 10648 10643 10639 10637 10636 10634 10630 10628 10625 10620 10616 10613 10607 10603 10598 10594 10589 10589 10590 10593 10598 10603 10607 10614 10622 10630
10723 10726 10724 10722 10721 10718 10715 10714 10710 10705 10700 10694 10690 10686 10681 10678 10674 10669 10663 10659 10657 10654 10650 10645 10641 10637 10636 10637 10635 10631 10629 10626 10623 10619 10615 10611 10606 10602 10598 10594 10591 10592 10595 10600 10604 10609 10615 10623 10630
10715 10717 10717 10715 10713 10712 10710 10708 10705 10698 10693 10688 10684 10680 10677 10674 10669 10664 10659 10656 10654 10651 10647 10643 10640 10637 10637 10637 10636 10634 10631 10629 10626 10622 10617 10614 10610 10607 10603 10599 10596 10595 10598 10602 10606 10612 10619 10625 10634
10707 10709 10708 10707 10707 10706 10705 10702 10701 10695 10690 10683 10678 10676 10672 10668 10663 10659 10655 10654 10652 10649 10646 10641 10639 10636 10637 10637 10637 10636 10635 10633 10631 10627 10623 10619 10614 10611 10608 10604 10601 10600 10602 10606 10610 10616 10622 10631 10638
10702 10702 10700 10701 10700 10700 10701 10697 10698 10692 10686 10679 10674 10671 10668 10662 10658 10655 10653 10652 10649 10647 10644 10640 10638 10636 10637 10638 10638 10639 10639 10637 10635 10632 10628 10624 10619 10615 10614 10610 10607 10607 10609 10613 10618 10623 10630 10637 10644
10694 10694 10693 10695 10695 10694 10693 10693 10692 10686 10682 10676 10671 10669 10663 10659 10656 10653 10651 10650 10648 10645 10643 10639 10638 10637 10638 10639 10639 10641 10641 10640 10639 10636 10633 10629 10623 10620 10618 10617 10614 10613 10615 10620 10627 10631 10636 10642 10650
10687 10685 10688 10689 10690 10689 10688 10688 10685 10683 10679 10672 10668 10664 10659 10656 10653 10651 10650 10648 10647 10645 10642 10639 10637 10637 10637 10640 10641 10643 10644 10644 10642 10641 10638 10634 10629 10625 10623 10623 10623 10623 10626 10631 10636 10640 10644 10648 10655
10677 10681 10681 10684 10683 10685 10684 10682 10683 10678 10674 10670 10664 10661 10657 10654 10651 10649 10649 10647 10646 10644 10641 10639 10638 10637 10638 10641 10643 10645 10646 10646 10645 10646 10643 10639 10636 10631 10629 10627 10629 10632 10636 10640 10645 10648 10651 10655 10662
10671 10676 10676 10678 10678 10680 10678 10678 10678 10675 10671 10667 10662 10659 10656 10653 10650 10649 10648 10646 10645 10644 10641 10639 10639 10638 10638 10641 10645 10646 10648 10648 10648 10647 10647 10646 10642 10638 10633 10633 10635 10638 10641 10648 10652 10655 10660 10666 10675